EXPRESS-AM8

Last updated on Thu Nov 21 2024 00:02:43 GMT+0000 (Coordinated Universal Time)

1 40895U 15048A 24325.27132853 -.00000110 00000+0 00000+0 0 9992 2 40895 0.0126 275.5458 0000332 283.2495 304.6735 1.00271878 33596
UTC large
Height (km)
Speed (km/s)
/
Latitude / Longitude
Inclination (degrees)
Orbital Period (minutes)
Azimuth
Elevation
Range (km)
Doppler Factor

Next 0 passes for location: London (51.5072 / 0.1276)

Sorry there are no passes over London.